Tracking 18840 objects as of 19-November-2017
HD Live streaming from Space Station
objects crossing your sky now

CANX-1

Track CANX-1 now!
10-day predictions
CANX-1 is classified as:


NORAD ID: 27847
Int'l Code: 2003-031H
Perigee: 819.4 km
Apogee: 831.5 km
Inclination: 98.7 °
Period: 101.3 minutes
Semi major axis: 7196 km
RCS: 0.0073 m2 (small)
Launch date: June 30, 2003
Source: Canada (CA)
Launch site: PLESETSK MISSILE AND SPACE COMPLEX (PKMTR)
Uplink (MHz):
Downlink (MHz): 437.880
Beacon (MHz):
Mode: 1200bps AFSK
Call sign: VA3SFL
Status: Inactive

aabbcc
Your satellite tracking list
Your tracking list is empty




NASA's NSSDC Master Catalog

Two Line Element Set (TLE):
1 27847U 03031H   17322.69534811 +.00000052 +00000-0 +43107-4 0  9993
2 27847 098.6840 328.1067 0008415 230.9286 129.1143 14.22082068746371
Source of the keplerian elements: AFSPC